Weather in Nukualofa

Tonga     21°08′10″S   175°12′22″W
temp.,
°C
wind,
m/s
gust,
m/s
humid.,
%
clouds,
%
prec.,
mm/h
press.,
hPa
HPBL,
m
15 april, thu
thu1501:00+24sse336834 0.0 1011912
04:00+24se22685 0.0 1009754
07:00+24s22685 0.0 1011791
10:00+24wnw11670 0.0 1012661
13:00+25wsw33681 0.0 1010804
16:00+25wsw44700 0.0 1009781
19:00+25sw55721 0.0 1010845
22:00+25sw457437 0.0 1012844
16 april, fri
fri1601:00+25sw447829 0.1 1011661
04:00+25sse778071 0.9 1011802
07:00+25sse767937 1.2 1012724
10:00+25s656718 0.0 1013995
13:00+25s65650 0.0 1012920
16:00+24s55670 0.0 1011904
19:00+24sse55620 0.0 1012951
22:00+24sse55620 0.0 10141090
17 april, sat
sat1701:00+24sse44633 0.0 10131112
04:00+24sse44632 0.0 10121050
07:00+23sse44620 0.0 10131044
10:00+24sse54620 0.0 10151094
13:00+24sse44610 0.0 10131098
16:00+24sse44610 0.0 10111011
19:00+24se43600 0.0 10121096
22:00+24se43590 0.0 10141095
18 april, sun
sun1801:00+24se22570 0.0 10131010
04:00+24sse33580 0.0 10121047
07:00+24sse44600 0.0 10141069
10:00+24se55620 0.0 1015999
13:00+24se55624 0.0 1013978
16:00+24se55641 0.0 1012961
19:00+24se66650 0.0 1013943
22:00+25se77643 0.0 10151072
19 april, mon
mon1901:00+25se66667 0.0 10141130
04:00+25ese66658 0.0 10131142
07:00+25ese77666 0.0 10141157
10:00+25ese776813 0.0 10161090
13:00+25ese6671100 0.0 1014998
16:00+26ese6572100 0.0 1014877
19:00+26ese887699 0.1 1014856
22:00+26ese9107975 0.4 1016860